Location: Newark
(49.8753°N, 23.0797°E)
Time: 04:46:22
(UTC+00:00)

Envisat - Pass Details

Date: 09 April 2020
Orbit: 764 x 766 km, 98.1° (Epoch: 31 May)

Event Time Altitude Azimuth Distance (km) Brightness Sun altitude
Rises 17:44:50 0° 224° (SW) 3,225 6.6 -5.8°
Reaches altitude 10° 17:48:57 10° 257° (WSW) 2,307 6.5 -6.4°
Maximum altitude 17:50:35 11° 276° (W) 2,210 6.9 -6.7°
Drops below altitude 10° 17:52:13 10° 295° (WNW) 2,312 7.3 -6.9°
Sets 17:56:24 0° 328° (NNW) 3,246 7.2 -7.6°
